• In Czech Republic
  • List of Countries
  • For 7 days
  • Water Temperature
  • Satellite Maps
  • Weather Map
  • Weather Widgets
  • user-avatar
    Login

    Hourly Weather Ondjiwa

    Today, 20 June, Wednesday

    Time Temperature Precipitation Wind Pressure Humidity
    00:00 +16°C° 0 mm 2 mps 668 mmHg 27%
    01:00 +15°C° 0 mm 2 mps 668 mmHg 28%
    02:00 +15°C° 0 mm 2 mps 668 mmHg 29%
    03:00 +14°C° 0 mm 2 mps 668 mmHg 31%
    04:00 +14°C° 0 mm 2 mps 668 mmHg 32%
    05:00 +13°C° 0 mm 2 mps 668 mmHg 34%
    06:00 +13°C° 0 mm 2 mps 669 mmHg 35%
    07:00 +13°C° 0 mm 2 mps 669 mmHg 37%
    08:00 +17°C° 0 mm 2 mps 670 mmHg 31%
    09:00 +21°C° 0 mm 3 mps 671 mmHg 26%
    10:00 +25°C° 0 mm 3 mps 672 mmHg 20%
    11:00 +27°C° 0 mm 3 mps 671 mmHg 18%
    12:00 +28°C° 0 mm 3 mps 671 mmHg 16%
    13:00 +30°C° 0 mm 3 mps 671 mmHg 13%
    14:00 +30°C° 0 mm 2 mps 670 mmHg 13%
    15:00 +30°C° 0 mm 2 mps 670 mmHg 13%
    16:00 +30°C° 0 mm 1 mps 670 mmHg 13%
    17:00 +27°C° 0 mm 1 mps 669 mmHg 16%
    18:00 +24°C° 0 mm 1 mps 669 mmHg 20%
    19:00 +21°C° 0 mm 1 mps 669 mmHg 23%
    20:00 +20°C° 0 mm 1 mps 669 mmHg 24%
    21:00 +20°C° 0 mm 1 mps 669 mmHg 25%
    22:00 +18°C° 0 mm 2 mps 669 mmHg 26%
    23:00 +17°C° 0 mm 2 mps 669 mmHg 27%

    Tomorrow, 21 June, Thursday

    Time Temperature Precipitation Wind Pressure Humidity
    00:00 +17°C° 0 mm 2 mps 669 mmHg 28%
    01:00 +16°C° 0 mm 2 mps 669 mmHg 30%
    02:00 +15°C° 0 mm 2 mps 669 mmHg 32%
    03:00 +15°C° 0 mm 2 mps 669 mmHg 34%
    04:00 +14°C° 0 mm 1 mps 669 mmHg 36%
    05:00 +14°C° 0 mm 1 mps 669 mmHg 38%
    06:00 +13°C° 0 mm 1 mps 670 mmHg 40%
    07:00 +13°C° 0 mm 1 mps 670 mmHg 42%
    08:00 +17°C° 0 mm 2 mps 671 mmHg 36%
    09:00 +20°C° 0 mm 2 mps 672 mmHg 30%
    10:00 +25°C° 0 mm 3 mps 673 mmHg 24%
    11:00 +27°C° 0 mm 3 mps 672 mmHg 21%
    12:00 +29°C° 0 mm 2 mps 672 mmHg 18%
    13:00 +30°C° 0 mm 2 mps 672 mmHg 15%
    14:00 +30°C° 0 mm 2 mps 671 mmHg 15%
    15:00 +30°C° 0 mm 2 mps 671 mmHg 15%
    16:00 +30°C° 0 mm 1 mps 670 mmHg 14%
    17:00 +27°C° 0 mm 2 mps 670 mmHg 17%
    18:00 +25°C° 0 mm 2 mps 670 mmHg 20%
    19:00 +21°C° 0 mm 3 mps 670 mmHg 23%
    20:00 +20°C° 0 mm 3 mps 670 mmHg 24%
    21:00 +19°C° 0 mm 3 mps 670 mmHg 25%
    22:00 +19°C° 0 mm 3 mps 671 mmHg 26%
    23:00 +18°C° 0 mm 3 mps 671 mmHg 27%

    Day after tomorrow, 22 June, Friday

    Time Temperature Precipitation Wind Pressure Humidity
    00:00 +17°C° 0 mm 2 mps 670 mmHg 27%
    01:00 +17°C° 0 mm 2 mps 670 mmHg 28%
    02:00 +16°C° 0 mm 2 mps 670 mmHg 29%
    03:00 +15°C° 0 mm 2 mps 670 mmHg 30%
    04:00 +15°C° 0 mm 2 mps 670 mmHg 31%
    05:00 +14°C° 0 mm 2 mps 670 mmHg 34%
    06:00 +14°C° 0 mm 2 mps 670 mmHg 36%
    07:00 +14°C° 0 mm 2 mps 671 mmHg 39%
    08:00 +17°C° 0 mm 3 mps 671 mmHg 33%
    09:00 +21°C° 0 mm 3 mps 672 mmHg 28%
    10:00 +26°C° 0 mm 4 mps 673 mmHg 22%
    11:00 +27°C° 0 mm 3 mps 673 mmHg 19%
    12:00 +29°C° 0 mm 3 mps 672 mmHg 17%
    13:00 +31°C° 0 mm 3 mps 672 mmHg 14%
    14:00 +31°C° 0 mm 3 mps 671 mmHg 14%
    15:00 +30°C° 0 mm 2 mps 671 mmHg 14%
    16:00 +30°C° 0 mm 2 mps 670 mmHg 14%
    17:00 +28°C° 0 mm 2 mps 670 mmHg 17%
    18:00 +25°C° 0 mm 2 mps 670 mmHg 21%
    19:00 +21°C° 0 mm 2 mps 669 mmHg 24%
    20:00 +20°C° 0 mm 2 mps 670 mmHg 26%
    21:00 +19°C° 0 mm 2 mps 670 mmHg 28%
    22:00 +18°C° 0 mm 2 mps 670 mmHg 30%
    23:00 +18°C° 0 mm 2 mps 670 mmHg 32%

    23 June, Saturday

    Time Temperature Precipitation Wind Pressure Humidity
    00:00 +17°C° 0 mm 2 mps 670 mmHg 34%
    01:00 +16°C° 0 mm 2 mps 670 mmHg 35%
    02:00 +16°C° 0 mm 2 mps 669 mmHg 37%
    03:00 +15°C° 0 mm 2 mps 669 mmHg 39%
    04:00 +15°C° 0 mm 2 mps 669 mmHg 41%
    05:00 +15°C° 0 mm 2 mps 669 mmHg 42%
    06:00 +14°C° 0 mm 2 mps 670 mmHg 43%
    07:00 +14°C° 0 mm 2 mps 670 mmHg 44%
    08:00 +18°C° 0 mm 3 mps 671 mmHg 37%
    09:00 +21°C° 0 mm 3 mps 672 mmHg 31%
    10:00 +26°C° 0 mm 4 mps 673 mmHg 24%
    11:00 +28°C° 0 mm 3 mps 672 mmHg 21%
    12:00 +29°C° 0 mm 3 mps 672 mmHg 18%
    13:00 +30°C° 0 mm 3 mps 671 mmHg 16%
    14:00 +30°C° 0 mm 3 mps 671 mmHg 15%
    15:00 +30°C° 0 mm 2 mps 670 mmHg 15%
    16:00 +30°C° 0 mm 2 mps 670 mmHg 15%
    17:00 +27°C° 0 mm 2 mps 669 mmHg 18%
    18:00 +25°C° 0 mm 2 mps 669 mmHg 21%
    19:00 +21°C° 0 mm 2 mps 669 mmHg 25%
    20:00 +20°C° 0 mm 2 mps 669 mmHg 26%
    21:00 +19°C° 0 mm 2 mps 669 mmHg 28%
    22:00 +18°C° 0 mm 2 mps 669 mmHg 30%
    23:00 +17°C° 0 mm 2 mps 669 mmHg 32%

    24 June, Sunday

    Time Temperature Precipitation Wind Pressure Humidity
    00:00 +17°C° 0 mm 2 mps 669 mmHg 34%
    01:00 +16°C° 0 mm 2 mps 668 mmHg 35%
    02:00 +16°C° 0 mm 2 mps 668 mmHg 37%
    03:00 +15°C° 0 mm 2 mps 668 mmHg 39%
    04:00 +15°C° 0 mm 2 mps 668 mmHg 40%
    05:00 +14°C° 0 mm 2 mps 668 mmHg 41%
    06:00 +14°C° 0 mm 2 mps 669 mmHg 43%
    07:00 +14°C° 0 mm 2 mps 669 mmHg 44%
    08:00 +17°C° 0 mm 3 mps 670 mmHg 37%
    09:00 +21°C° 0 mm 4 mps 671 mmHg 30%
    10:00 +26°C° 0 mm 4 mps 671 mmHg 23%
    11:00 +27°C° 0 mm 4 mps 671 mmHg 20%
    12:00 +29°C° 0 mm 3 mps 670 mmHg 17%
    13:00 +30°C° 0 mm 3 mps 670 mmHg 15%
    14:00 +30°C° 0 mm 2 mps 669 mmHg 14%
    15:00 +30°C° 0 mm 1 mps 669 mmHg 14%
    16:00 +30°C° 0 mm 1 mps 669 mmHg 14%
    17:00 +27°C° 0 mm 1 mps 668 mmHg 17%
    18:00 +24°C° 0 mm 1 mps 668 mmHg 20%
    19:00 +22°C° 0 mm 1 mps 668 mmHg 23%
    20:00 +20°C° 0 mm 2 mps 668 mmHg 24%
    21:00 +19°C° 0 mm 2 mps 668 mmHg 25%
    22:00 +18°C° 0 mm 2 mps 668 mmHg 26%
    23:00 +18°C° 0 mm 2 mps 668 mmHg 28%

    25 June, Monday

    Time Temperature Precipitation Wind Pressure Humidity
    00:00 +17°C° 0 mm 3 mps 668 mmHg 29%
    01:00 +16°C° 0 mm 3 mps 667 mmHg 31%
    02:00 +15°C° 0 mm 2 mps 667 mmHg 33%
    03:00 +15°C° 0 mm 2 mps 667 mmHg 36%
    04:00 +14°C° 0 mm 2 mps 667 mmHg 38%
    05:00 +14°C° 0 mm 2 mps 667 mmHg 40%
    06:00 +13°C° 0 mm 2 mps 667 mmHg 41%
    07:00 +13°C° 0 mm 2 mps 668 mmHg 42%
    08:00 +17°C° 0 mm 3 mps 668 mmHg 36%
    09:00 +21°C° 0 mm 3 mps 669 mmHg 30%
    10:00 +25°C° 0 mm 4 mps 670 mmHg 24%
    11:00 +27°C° 0 mm 4 mps 669 mmHg 21%
    12:00 +29°C° 0 mm 4 mps 669 mmHg 19%
    13:00 +32°C° 0 mm 4 mps 668 mmHg 16%
    14:00 +32°C° 0 mm 4 mps 668 mmHg 16%
    15:00 +32°C° 0 mm 4 mps 667 mmHg 16%
    16:00 +32°C° 0 mm 4 mps 667 mmHg 16%
    17:00 +28°C° 0 mm 4 mps 667 mmHg 19%
    18:00 +26°C° 0 mm 3 mps 666 mmHg 22%
    19:00 +22°C° 0 mm 3 mps 666 mmHg 25%
    20:00 +21°C° 0 mm 3 mps 667 mmHg 28%
    21:00 +20°C° 0 mm 3 mps 667 mmHg 31%
    22:00 +19°C° 0 mm 3 mps 667 mmHg 33%
    23:00 +18°C° 0 mm 3 mps 667 mmHg 39%
    Show more